Location: Moscow
(55.7500°N, 37.5830°E)
Time: 09:03:07
(UTC+03:00)

Transit 4A - Pass Details

Date: 04 December 2021
Orbit: 863 x 981 km, 66.8° (Epoch: 23 January)

Event Time Altitude Azimuth Distance (km) Brightness Sun altitude
Rises 19:39:03 0° 196° (SSW) 3,461 11.0 -29.3°
Reaches altitude 10° 19:41:36 10° 190° (S) 2,539 10.2 -29.7°
Enters shadow 19:42:57 17° 184° (S) 2,074 9.7 -29.9°
